Darstellungsparameter: Aktuell verwendete Einstellungen:
Skalierung der Graphiken ... ?
xyx+y,   Skalierungsfaktor:      Skalierung: Modus: x, Faktor: 1
Darstellungszeitraum ... ?
Vom - - bis: - -   Zeitraum: 14.05.2009 - 15.05.2009
Min/Max/Avg-Anzeige ... ?
Zeige MMA aktuell
Zeige MMA Monat
Zeige MMA alles
Zeige --A aktuell
Zeige --A Monat
Zeige --A alles
Keine MMA-Anzeige
MMA:
Average (ber die Originaldaten)
MMA-Basis: 14.05.2009 - 15.05.2009
Quicknavigation für Darstellung... ?
Tage:      1T, 2T, 3T, 5T -1T -2T -3T -5T +1T +2T +3T +5T
Wochen: 1W, 2W, 3W -1W -2W -3W +1W +2W +3W
Monate: 1M, 3M, 6M -1M -3M -6M +1M +3M +6M
Jahre:    1J, 3J, 5J, 10J -1J -3J -5J -10J +1J +3J +5J +10J
Nutze für die Darstellung ... ?
Originaldaten oder Mittelwerte auf ...
Stundenbasis Tagesbasis Wochenbasis
Monatsbasis Jahresbasis      Datenbasis: Original-Daten
Darstellen als:
Statistik (Auto) Statistik J:M      Darstellung:
Zur Graphik,    zurück zur Übersicht aller Sensoren.
 
Tabellarische Datenbersicht: ?
 
Sensor: Nr:Datum:Temp:Abs-Feuchte:Windchill:Wind:
Aussen-T/F 1 14-05-2009 00:11:35 14 C 10.01 g/m*3 14 C 0 km/h
2 14-05-2009 00:26:35 14 C 10.01 g/m*3 14 C 0 km/h
3 14-05-2009 00:41:35 13.8 C 9.89 g/m*3 13.8 C 0 km/h
4 14-05-2009 00:56:35 13.8 C 9.89 g/m*3 13.8 C 0 km/h
5 14-05-2009 01:11:35 13.7 C 9.83 g/m*3 13.7 C 0 km/h
6 14-05-2009 01:26:35 13.5 C 9.71 g/m*3 13.5 C 0 km/h
7 14-05-2009 01:41:35 13.4 C 9.65 g/m*3 13.4 C 0 km/h
8 14-05-2009 01:56:35 13.2 C 9.53 g/m*3 13.2 C 0 km/h
9 14-05-2009 02:11:35 13.1 C 9.59 g/m*3 13.1 C 0 km/h
10 14-05-2009 02:26:35 13 C 9.53 g/m*3 13 C 0 km/h
11 14-05-2009 02:41:35 12.9 C 9.58 g/m*3 12.9 C 0 km/h
12 14-05-2009 02:56:35 13 C 9.53 g/m*3 13 C 0 km/h
13 14-05-2009 03:11:35 13.3 C 9.7 g/m*3 13.3 C 0 km/h
14 14-05-2009 03:26:35 13.4 C 9.65 g/m*3 13.4 C 0 km/h
15 14-05-2009 03:41:35 13.2 C 9.42 g/m*3 13.2 C 0 km/h
16 14-05-2009 03:56:35 13.1 C 9.36 g/m*3 13.1 C 0 km/h
17 14-05-2009 04:11:35 13.1 C 9.13 g/m*3 13.1 C 0 km/h
18 14-05-2009 04:26:35 13.2 C 8.84 g/m*3 13.2 C 0 km/h
19 14-05-2009 04:41:35 13.4 C 8.6 g/m*3 13.4 C 0 km/h
20 14-05-2009 04:56:36 13.4 C 8.49 g/m*3 13.4 C 0 km/h
21 14-05-2009 05:11:36 13.5 C 8.66 g/m*3 13.5 C 0 km/h
22 14-05-2009 05:26:36 13.5 C 8.54 g/m*3 13.5 C 0 km/h
23 14-05-2009 05:41:36 13.4 C 8.72 g/m*3 13.4 C 0 km/h
24 14-05-2009 05:56:36 13.3 C 8.66 g/m*3 13.3 C 0 km/h
25 14-05-2009 06:11:36 13.2 C 8.73 g/m*3 13.2 C 0 km/h
Sensor: Nr:Datum:Temp:Abs-Feuchte:Windchill:Wind:
Aussen-T/F 26 14-05-2009 06:26:36 13.3 C 8.66 g/m*3 13.3 C 0 km/h
27 14-05-2009 06:41:36 13.4 C 8.6 g/m*3 13.4 C 0 km/h
28 14-05-2009 06:56:36 13.6 C 8.36 g/m*3 13.6 C 0 km/h
29 14-05-2009 07:11:36 13.7 C 8.64 g/m*3 13.7 C 0 km/h
30 14-05-2009 07:26:36 13.8 C 8.82 g/m*3 13.8 C 0 km/h
31 14-05-2009 07:41:36 13.8 C 8.82 g/m*3 13.8 C 0 km/h
32 14-05-2009 07:56:36 13.7 C 8.76 g/m*3 13.7 C 0 km/h
33 14-05-2009 08:11:36 13.7 C 8.76 g/m*3 13.7 C 0 km/h
34 14-05-2009 08:26:36 13.9 C 8.75 g/m*3 13.9 C 0 km/h
35 14-05-2009 08:41:36 14.4 C 8.53 g/m*3 14.4 C 0 km/h
36 14-05-2009 08:56:36 14.5 C 8.71 g/m*3 14.5 C 0 km/h
37 14-05-2009 09:11:36 14.7 C 8.81 g/m*3 14.7 C 0 km/h
38 14-05-2009 09:26:36 15 C 8.59 g/m*3 15 C 0 km/h
39 14-05-2009 09:41:37 15.1 C 7.74 g/m*3 15.1 C 0 km/h
40 14-05-2009 09:56:37 15.5 C 8.06 g/m*3 15.5 C 0 km/h
41 14-05-2009 10:11:37 15.5 C 8.06 g/m*3 15.5 C 0 km/h
42 14-05-2009 10:26:37 15.5 C 8.46 g/m*3 15.5 C 0 km/h
43 14-05-2009 10:41:37 15.6 C 8.11 g/m*3 15.6 C 0 km/h
44 14-05-2009 10:56:37 15.6 C 7.98 g/m*3 15.6 C 0 km/h
45 14-05-2009 11:11:37 15.8 C 7.94 g/m*3 15.8 C 0 km/h
46 14-05-2009 11:26:37 16.3 C 8.19 g/m*3 16.3 C 0 km/h
47 14-05-2009 11:41:37 16.9 C 8.2 g/m*3 16.9 C 0 km/h
48 14-05-2009 11:56:37 17.2 C 8.2 g/m*3 17.2 C 0 km/h
49 14-05-2009 12:11:37 17 C 8.39 g/m*3 17 C 0 km/h
50 14-05-2009 12:26:37 17 C 8.54 g/m*3 17 C 0 km/h
Sensor: Nr:Datum:Temp:Abs-Feuchte:Windchill:Wind:
Aussen-T/F 51 14-05-2009 12:41:37 17.4 C 8.45 g/m*3 17.4 C 0 km/h
52 14-05-2009 12:56:37 17.5 C 8.8 g/m*3 17.5 C 0 km/h
53 14-05-2009 13:11:37 17.5 C 8.65 g/m*3 17.5 C 0 km/h
54 14-05-2009 13:26:37 17.9 C 8.7 g/m*3 17.9 C 0 km/h
55 14-05-2009 13:41:37 18.4 C 8.65 g/m*3 18.4 C 0 km/h
56 14-05-2009 13:56:37 18.9 C 8.59 g/m*3 18.9 C 0 km/h
57 14-05-2009 14:11:37 19.9 C 8.42 g/m*3 19.9 C 0 km/h
58 14-05-2009 14:26:38 21.1 C 8.29 g/m*3 21.1 C 0 km/h
59 14-05-2009 14:41:38 21.5 C 8.11 g/m*3 21.5 C 0 km/h
60 14-05-2009 14:56:38 22.3 C 7.9 g/m*3 22.3 C 0 km/h
61 14-05-2009 15:11:38 21.2 C 8.34 g/m*3 21.2 C 0 km/h
62 14-05-2009 15:26:38 21.1 C 8.29 g/m*3 21.1 C 0 km/h
63 14-05-2009 15:41:38 22 C 8.54 g/m*3 22 C 0 km/h
64 14-05-2009 15:56:38 24.9 C 8.01 g/m*3 24.9 C 0 km/h
65 14-05-2009 16:11:38 25.4 C 7.53 g/m*3 25.4 C 0 km/h
66 14-05-2009 16:26:38 23 C 7.81 g/m*3 23 C 0 km/h
67 14-05-2009 16:41:38 21.8 C 8.44 g/m*3 21.8 C 0 km/h
68 14-05-2009 16:56:38 20.5 C 8.54 g/m*3 20.5 C 0 km/h
69 14-05-2009 17:11:38 20.2 C 8.57 g/m*3 20.2 C 0 km/h
70 14-05-2009 17:26:38 19.6 C 8.95 g/m*3 19.6 C 0 km/h
71 14-05-2009 17:41:38 19.6 C 8.95 g/m*3 19.6 C 0 km/h
72 14-05-2009 17:56:38 19.3 C 9.29 g/m*3 19.3 C 0 km/h
73 14-05-2009 18:11:38 19.1 C 9.51 g/m*3 19.1 C 0 km/h
74 14-05-2009 18:26:38 19 C 9.13 g/m*3 19 C 0 km/h
75 14-05-2009 18:41:38 18.9 C 9.56 g/m*3 18.9 C 0 km/h
Sensor: Nr:Datum:Temp:Abs-Feuchte:Windchill:Wind:
Aussen-T/F 76 14-05-2009 18:56:38 18.7 C 9.77 g/m*3 18.7 C 0 km/h
77 14-05-2009 19:11:39 18.3 C 9.38 g/m*3 18.3 C 0 km/h
78 14-05-2009 19:26:39 18 C 9.52 g/m*3 18 C 0 km/h
79 14-05-2009 19:41:39 17.4 C 9.93 g/m*3 17.4 C 0 km/h
80 14-05-2009 19:56:39 16.4 C 10.61 g/m*3 16.4 C 0 km/h
81 14-05-2009 20:11:39 16 C 11.04 g/m*3 16 C 0 km/h
82 14-05-2009 20:26:39 15.6 C 11.3 g/m*3 15.6 C 0 km/h
83 14-05-2009 20:41:39 15.6 C 11.44 g/m*3 15.6 C 0 km/h
84 14-05-2009 20:56:39 15.3 C 11.36 g/m*3 15.3 C 0 km/h
85 14-05-2009 21:11:39 15.3 C 11.49 g/m*3 15.3 C 0 km/h
86 14-05-2009 21:26:39 15.1 C 11.35 g/m*3 15.1 C 0 km/h
87 14-05-2009 21:41:39 15 C 11.41 g/m*3 15 C 0 km/h
88 14-05-2009 21:56:39 14.5 C 11.19 g/m*3 14.5 C 0 km/h
89 14-05-2009 22:11:39 14.1 C 10.92 g/m*3 14.1 C 0 km/h
90 14-05-2009 22:26:39 14 C 10.98 g/m*3 14 C 0 km/h
91 14-05-2009 22:41:39 13.6 C 10.83 g/m*3 13.6 C 0 km/h
92 14-05-2009 22:56:39 13.6 C 10.83 g/m*3 13.6 C 0 km/h
93 14-05-2009 23:11:39 13.3 C 10.74 g/m*3 13.3 C 0 km/h
94 14-05-2009 23:26:39 13.2 C 10.68 g/m*3 13.2 C 0 km/h
95 14-05-2009 23:41:39 13.2 C 10.68 g/m*3 13.2 C 0 km/h
96 14-05-2009 23:56:40 13 C 10.55 g/m*3 13 C 0 km/h
97 15-05-2009 00:11:40 12.9 C 10.59 g/m*3 12.9 C 0 km/h
98 15-05-2009 00:26:40 12.9 C 10.59 g/m*3 12.9 C 0 km/h
99 15-05-2009 00:41:40 12.7 C 10.46 g/m*3 12.7 C 0 km/h
100 15-05-2009 00:56:40 12.8 C 10.53 g/m*3 12.8 C 0 km/h
Sensor: Nr:Datum:Temp:Abs-Feuchte:Windchill:Wind:
Aussen-T/F 101 15-05-2009 01:11:40 12.9 C 10.59 g/m*3 12.9 C 0 km/h
102 15-05-2009 01:26:40 13 C 10.43 g/m*3 13 C 0 km/h
103 15-05-2009 01:41:40 13.1 C 10.5 g/m*3 13.1 C 0 km/h
104 15-05-2009 01:56:40 13 C 10.43 g/m*3 13 C 0 km/h
105 15-05-2009 02:11:40 13.1 C 10.38 g/m*3 13.1 C 0 km/h
106 15-05-2009 02:26:40 13.1 C 10.38 g/m*3 13.1 C 0 km/h
107 15-05-2009 02:41:40 13.1 C 10.38 g/m*3 13.1 C 0 km/h
108 15-05-2009 02:56:40 13.1 C 10.38 g/m*3 13.1 C 0 km/h
109 15-05-2009 03:11:40 13.1 C 10.38 g/m*3 13.1 C 0 km/h
110 15-05-2009 03:26:40 13.2 C 10.45 g/m*3 13.2 C 0 km/h
111 15-05-2009 03:41:40 13.3 C 10.51 g/m*3 13.3 C 0 km/h
112 15-05-2009 03:56:40 13.2 C 10.45 g/m*3 13.2 C 0 km/h
113 15-05-2009 04:11:40 13.4 C 10.69 g/m*3 13.4 C 0 km/h
114 15-05-2009 04:26:40 13.4 C 10.58 g/m*3 13.4 C 0 km/h
115 15-05-2009 04:41:41 13.4 C 10.58 g/m*3 13.4 C 0 km/h
116 15-05-2009 04:56:41 13.4 C 10.69 g/m*3 13.4 C 0 km/h
117 15-05-2009 05:11:41 13.5 C 10.76 g/m*3 13.5 C 0 km/h
118 15-05-2009 05:26:41 13.6 C 10.83 g/m*3 13.6 C 0 km/h
119 15-05-2009 05:41:41 13.7 C 10.89 g/m*3 13.7 C 0 km/h
120 15-05-2009 05:56:41 13.8 C 10.96 g/m*3 13.8 C 0 km/h
121 15-05-2009 06:11:41 13.7 C 10.78 g/m*3 13.7 C 0 km/h
122 15-05-2009 06:26:41 13.8 C 10.84 g/m*3 13.8 C 0 km/h
123 15-05-2009 06:41:41 14.1 C 11.04 g/m*3 14.1 C 0 km/h
124 15-05-2009 06:56:41 14.4 C 11.13 g/m*3 14.4 C 0 km/h
125 15-05-2009 07:11:41 14.6 C 11.26 g/m*3 14.6 C 0 km/h
Sensor: Nr:Datum:Temp:Abs-Feuchte:Windchill:Wind:
Aussen-T/F 126 15-05-2009 07:26:41 14.6 C 11.14 g/m*3 14.6 C 0 km/h
127 15-05-2009 07:41:41 14.7 C 11.21 g/m*3 14.7 C 0 km/h
128 15-05-2009 07:56:41 15 C 11.41 g/m*3 15 C 0 km/h
129 15-05-2009 08:11:41 15.8 C 12.11 g/m*3 15.8 C 0 km/h
130 15-05-2009 08:26:41 16.3 C 11.93 g/m*3 16.3 C 0 km/h
131 15-05-2009 08:41:41 16.4 C 11.17 g/m*3 16.4 C 0 km/h
132 15-05-2009 08:56:41 16.5 C 10.67 g/m*3 16.5 C 0 km/h
133 15-05-2009 09:11:41 16.7 C 10.8 g/m*3 16.7 C 0 km/h
134 15-05-2009 09:26:41 16.7 C 10.23 g/m*3 16.7 C 0 km/h
135 15-05-2009 09:41:42 16.8 C 10.29 g/m*3 16.8 C 0 km/h
136 15-05-2009 09:56:02 17.2 C 9.96 g/m*3 17.2 C 0 km/h
137 15-05-2009 10:11:01 17.1 C 9.9 g/m*3 17.1 C 0 km/h
138 15-05-2009 10:26:02 17.9 C 9.77 g/m*3 17.9 C 0 km/h
139 15-05-2009 10:41:02 18.4 C 9.59 g/m*3 18.4 C 0 km/h
140 15-05-2009 10:56:01 18.6 C 9.71 g/m*3 18.6 C 0 km/h
141 15-05-2009 11:11:02 19.3 C 9.29 g/m*3 19.3 C 0 km/h
142 15-05-2009 11:26:02 20.1 C 9.04 g/m*3 20.1 C 0 km/h
143 15-05-2009 11:41:01 20.6 C 9.31 g/m*3 20.6 C 0 km/h
144 15-05-2009 11:56:01 20.6 C 8.95 g/m*3 20.6 C 0 km/h
145 15-05-2009 12:11:01 19.9 C 8.59 g/m*3 19.9 C 0 km/h
146 15-05-2009 12:26:00 20 C 8.64 g/m*3 20 C 0 km/h
147 15-05-2009 12:41:00 20.4 C 8.49 g/m*3 20.4 C 0 km/h
148 15-05-2009 12:56:00 19.2 C 8.9 g/m*3 19.2 C 0 km/h
149 15-05-2009 13:11:00 17.5 C 9.84 g/m*3 17.5 C 0 km/h
150 15-05-2009 13:26:00 17 C 10.42 g/m*3 17 C 0 km/h
Sensor: Nr:Datum:Temp:Abs-Feuchte:Windchill:Wind:
Aussen-T/F 151 15-05-2009 13:41:00 17.5 C 10.59 g/m*3 17.5 C 0 km/h
152 15-05-2009 13:56:59 18.2 C 10.26 g/m*3 18.2 C 0 km/h
153 15-05-2009 14:10:59 17.8 C 9.71 g/m*3 17.8 C 0 km/h
154 15-05-2009 14:26:00 17.9 C 10.08 g/m*3 17.9 C 0 km/h
155 15-05-2009 14:41:59 17.3 C 9.87 g/m*3 17.3 C 0 km/h
156 15-05-2009 14:56:59 16.9 C 9.49 g/m*3 16.9 C 0 km/h
157 15-05-2009 15:11:59 16.5 C 9.97 g/m*3 16.5 C 0 km/h
158 15-05-2009 15:26:59 15.9 C 10.43 g/m*3 15.9 C 0 km/h
159 15-05-2009 15:41:58 16.7 C 11.23 g/m*3 16.7 C 0 km/h
160 15-05-2009 15:56:59 17.6 C 11.4 g/m*3 17.6 C 0 km/h
161 15-05-2009 16:11:59 18.3 C 10.94 g/m*3 18.3 C 0 km/h
162 15-05-2009 16:26:58 18.4 C 10.7 g/m*3 18.4 C 0 km/h
163 15-05-2009 16:41:58 18.2 C 10.72 g/m*3 18.2 C 0 km/h
164 15-05-2009 16:56:58 18.3 C 10.79 g/m*3 18.3 C 0 km/h
165 15-05-2009 17:11:58 18 C 10.75 g/m*3 18 C 0 km/h
166 15-05-2009 17:26:57 16.3 C 9.43 g/m*3 16.3 C 0 km/h
167 15-05-2009 17:41:57 16.4 C 10.05 g/m*3 16.4 C 0 km/h
168 15-05-2009 17:49:57 16.2 C 10.2 g/m*3 16.2 C 0 km/h
169 15-05-2009 18:01:57 15.9 C 10.16 g/m*3 15.9 C 0 km/h
170 15-05-2009 18:13:57 15.7 C 10.17 g/m*3 15.7 C 0 km/h
171 15-05-2009 18:25:57 15.5 C 9.91 g/m*3 15.5 C 0 km/h
172 15-05-2009 18:37:56 15.3 C 9.92 g/m*3 15.3 C 0 km/h
173 15-05-2009 18:49:57 14.5 C 9.33 g/m*3 14.5 C 0 km/h
174 15-05-2009 19:01:56 14.1 C 9.22 g/m*3 14.1 C 0 km/h
175 15-05-2009 19:13:56 13.8 C 9.41 g/m*3 13.8 C 0 km/h
Sensor: Nr:Datum:Temp:Abs-Feuchte:Windchill:Wind:
Aussen-T/F 176 15-05-2009 19:25:56 13.7 C 9.59 g/m*3 13.7 C 0 km/h
177 15-05-2009 19:37:57 13.5 C 9.71 g/m*3 13.5 C 0 km/h
178 15-05-2009 19:49:56 13.5 C 9.83 g/m*3 13.5 C 0 km/h
179 15-05-2009 20:01:56 13.5 C 9.83 g/m*3 13.5 C 0 km/h
180 15-05-2009 20:13:56 13.3 C 9.82 g/m*3 13.3 C 0 km/h
181 15-05-2009 20:25:56 13.2 C 9.76 g/m*3 13.2 C 0 km/h
182 15-05-2009 20:37:56 13.2 C 9.76 g/m*3 13.2 C 0 km/h
183 15-05-2009 20:49:55 13.1 C 9.81 g/m*3 13.1 C 0 km/h
184 15-05-2009 21:01:56 12.8 C 9.74 g/m*3 12.8 C 0 km/h
185 15-05-2009 21:13:56 12.7 C 9.8 g/m*3 12.7 C 0 km/h
186 15-05-2009 21:25:55 12.5 C 9.68 g/m*3 12.5 C 0 km/h
187 15-05-2009 21:37:55 12.5 C 9.78 g/m*3 12.5 C 0 km/h
188 15-05-2009 21:49:55 12.5 C 9.78 g/m*3 12.5 C 0 km/h
189 15-05-2009 22:01:55 12.5 C 9.89 g/m*3 12.5 C 0 km/h
190 15-05-2009 22:13:55 12.5 C 9.89 g/m*3 12.5 C 0 km/h
191 15-05-2009 22:25:55 12.5 C 10 g/m*3 12.5 C 0 km/h
192 15-05-2009 22:37:54 12.5 C 10 g/m*3 12.5 C 0 km/h
193 15-05-2009 22:49:55 12.6 C 10.07 g/m*3 12.6 C 0 km/h
194 15-05-2009 23:01:54 12.6 C 10.07 g/m*3 12.6 C 0 km/h
195 15-05-2009 23:13:54 12.5 C 10 g/m*3 12.5 C 0 km/h
196 15-05-2009 23:25:54 12.4 C 9.94 g/m*3 12.4 C 0 km/h
197 15-05-2009 23:37:54 12.2 C 9.71 g/m*3 12.2 C 0 km/h
198 15-05-2009 23:49:54 12.4 C 9.4 g/m*3 12.4 C 0 km/h

Legende:
   Min
   Max


Maximal/Minimal-Werte vom 14.05.2009 - 15.05.2009

Sensor Min Max Avg
Temp
(Aussen-T/F)
12.2 °C
15-05-2009  23:37:54
25.4 °C
14-05-2009  16:11:38
15.55 °C
Abs-Feuchte
(Aussen-T/F)
7.53 g/m*3
14-05-2009  16:11:38
12.11 g/m*3
15-05-2009  08:11:41
9.67 g/m*3
Windchill
(Aussen-T/F)
12.2 C
15-05-2009  23:37:54
25.4 C
14-05-2009  16:11:38
15.47 C

Die Daten stammen von einer Davis Vantage Pro 2 Wetter-Station und werden unter Linux mit der Software wview2wettercgi und aufbereitet. Alle Angaben erfolgen ohne Gewähr für ihre Vollständigkeit oder Richtigkeit.
Kontakt: Rainer Krienke krienke@uni-koblenz.de . Meine Webseiten an der Uni Koblenz oder privat.
Version: $Revision: 0.78 $